| time (UTC) | temp F | wind direction | speed MPH | gust MPH | rain 1hr in | rain 24hr in | rain mn in | humidity % | barometer mb |
| 20260505041537 | 48 | 0 | 0.0 | 0.0 | 0.00 | 0.00 | 0.00 | 83 | 1010.0 |
| 20260505040027 | 49 | 0 | 0.0 | 0.0 | 0.00 | 0.00 | 0.00 | 82 | 1010.1 |
| 20260505034526 | 49 | 0 | 0.0 | 0.0 | 0.00 | 0.00 | 0.00 | 81 | 1010.0 |
| 20260505033026 | 49 | 0 | 0.0 | 0.0 | 0.00 | 0.00 | 0.00 | 81 | 1010.1 |
| 20260505031527 | 50 | 0 | 0.0 | 0.0 | 0.00 | 0.00 | 0.00 | 81 | 1010.2 |
| 20260505030027 | 50 | 0 | 0.0 | 0.0 | 0.00 | 0.00 | 0.00 | 80 | 1010.3 |
| 20260505024528 | 51 | 0 | 0.0 | 0.0 | 0.00 | 0.00 | 0.00 | 79 | 1010.4 |
| 20260505023028 | 51 | 0 | 0.0 | 0.0 | 0.00 | 0.00 | 0.00 | 78 | 1010.3 |
| 20260505021526 | 52 | 0 | 0.0 | 0.0 | 0.00 | 0.00 | 0.00 | 77 | 1010.4 |
| 20260505020035 | 52 | 0 | 0.0 | 0.0 | 0.00 | 0.00 | 0.00 | 76 | 1010.4 |
| 20260505014535 | 53 | 0 | 0.0 | 0.0 | 0.00 | 0.00 | 0.00 | 75 | 1010.4 |
| 20260505013037 | 54 | 0 | 0.0 | 0.0 | 0.00 | 0.00 | 0.00 | 75 | 1010.4 |
| 20260505011535 | 55 | 0 | 0.0 | 0.0 | 0.00 | 0.00 | 0.00 | 70 | 1010.2 |
| 20260505010028 | 57 | 0 | 0.0 | 0.0 | 0.00 | 0.00 | 0.00 | 70 | 1010.0 |
| 20260505004541 | 58 | 0 | 0.0 | 0.0 | 0.00 | 0.00 | 0.00 | 65 | 1009.7 |
| 20260505003049 | 60 | 0 | 0.0 | 0.0 | 0.00 | 0.00 | 0.00 | 62 | 1009.7 |
| 20260505001528 | 62 | 0 | 0.0 | 0.0 | 0.00 | 0.00 | 0.00 | 56 | 1009.5 |
| 20260505000031 | 65 | 0 | 0.0 | 0.0 | 0.00 | 0.00 | 0.00 | 50 | 1009.5 |
| 20260504234530 | 67 | 0 | 0.0 | 3.0 | 0.00 | 0.00 | 0.00 | 47 | 1009.3 |
| 20260504233029 | 68 | 0 | 0.0 | 5.0 | 0.00 | 0.00 | 0.00 | 44 | 1009.2 |
| 20260504231527 | 69 | 0 | 1.0 | 6.0 | 0.00 | 0.00 | 0.00 | 39 | 1009.1 |
| 20260504230027 | 69 | 0 | 0.0 | 4.0 | 0.00 | 0.00 | 0.00 | 40 | 1009.0 |
| 20260504224526 | 70 | 0 | 1.0 | 9.0 | 0.00 | 0.00 | 0.00 | 38 | 1009.1 |
| 20260504223032 | 70 | 284 | 1.0 | 8.0 | 0.00 | 0.00 | 0.00 | 38 | 1009.2 |
| 20260504221529 | 71 | 252 | 2.0 | 10.0 | 0.00 | 0.00 | 0.00 | 38 | 1009.1 |
| 20260504220031 | 71 | 248 | 0.0 | 8.0 | 0.00 | 0.00 | 0.00 | 37 | 1009.2 |
| 20260504214529 | 71 | 132 | 0.0 | 3.0 | 0.00 | 0.00 | 0.00 | 38 | 1009.2 |
| 20260504213030 | 72 | 0 | 1.0 | 11.0 | 0.00 | 0.00 | 0.00 | 36 | 1009.4 |
| 20260504211536 | 72 | 266 | 3.0 | 9.0 | 0.00 | 0.00 | 0.00 | 37 | 1009.3 |
| 20260504210028 | 72 | 254 | 2.0 | 13.0 | 0.00 | 0.00 | 0.00 | 37 | 1009.3 |
| 20260504204529 | 71 | 0 | 3.0 | 8.0 | 0.00 | 0.00 | 0.00 | 36 | 1009.5 |
| 20260504203028 | 71 | 0 | 2.0 | 8.0 | 0.00 | 0.00 | 0.00 | 37 | 1009.4 |
| 20260504201530 | 72 | 227 | 3.0 | 11.0 | 0.00 | 0.00 | 0.00 | 37 | 1009.5 |
| 20260504200030 | 71 | 278 | 1.0 | 10.0 | 0.00 | 0.00 | 0.00 | 37 | 1009.6 |
| 20260504194528 | 71 | 286 | 2.0 | 10.0 | 0.00 | 0.00 | 0.00 | 39 | 1009.7 |
| 20260504193027 | 71 | 267 | 1.0 | 8.0 | 0.00 | 0.00 | 0.00 | 39 | 1009.8 |
| 20260504191528 | 71 | 255 | 2.0 | 12.0 | 0.00 | 0.00 | 0.00 | 38 | 1009.9 |
| 20260504190028 | 70 | 309 | 3.0 | 12.0 | 0.00 | 0.00 | 0.00 | 37 | 1010.0 |
| 20260504184542 | 70 | 306 | 2.0 | 12.0 | 0.00 | 0.00 | 0.00 | 37 | 1010.3 |
| 20260504183030 | 70 | 273 | 3.0 | 11.0 | 0.00 | 0.00 | 0.00 | 39 | 1010.6 |
| 20260504181534 | 70 | 228 | 4.0 | 12.0 | 0.00 | 0.00 | 0.00 | 37 | 1010.9 |
| 20260504180030 | 70 | 273 | 5.0 | 10.0 | 0.00 | 0.00 | 0.00 | 36 | 1011.2 |
| 20260504174528 | 69 | 279 | 5.0 | 13.0 | 0.00 | 0.00 | 0.00 | 36 | 1011.3 |
| 20260504173028 | 70 | 288 | 3.0 | 10.0 | 0.00 | 0.00 | 0.00 | 38 | 1011.3 |
| 20260504171530 | 69 | 325 | 1.0 | 11.0 | 0.00 | 0.00 | 0.00 | 42 | 1011.5 |
| 20260504081527 | 35 | 0 | 0.0 | 0.0 | 0.00 | 0.00 | 0.00 | 88 | 1014.3 |